Home   Weather   Gibraltar   Past weeks
Flag for Gibraltar

Past Weather in Gibraltar, Gibraltar — Yesterday and Last 2 Weeks

Now
70 °F

Sunny.


Feels Like: 70 °F
Forecast: 72 / 58 °F
Wind: 12 mph from Southwest

Location: Gibraltar Airport

Current Time: Oct 16, 2019 at 7:37:59 pm

Latest Report: Oct 16, 2019 at 6:50 pm


Visibility: 10 mi

Pressure: 30.07 "Hg

Humidity: 33%

Dew Point: 39 °F

Location of GibraltarLocation

Past Weather in Gibraltar — Graph

°F

Gibraltar Temperature Yesterday

Maximum temperature yesterday: 75 °F (at 4:50 pm)
Minimum temperature yesterday: 59 °F (at 8:50 am)
Average temperature yesterday: 67 °F

High & Low Weather Summary for the Past Weeks

 TemperatureHumidityPressure
High82 °F (Oct 7, 2:50 pm)94% (Oct 8, 3:50 am)30.18 "Hg (Oct 8, 3:50 am)
Low57 °F (Oct 16, 7:50 am)29% (Oct 15, 2:28 pm)29.95 "Hg (Oct 7, 5:20 pm)
Average71 °F71%30.05 "Hg
* Reported Oct 1 6:50 pm — Oct 16 6:20 pm, Gibraltar. Weather by CustomWeather, © 2019

Note: Actual official high and low records may vary slightly from our data, if they occured in-between our weather recording intervals... More about our weather records

Advertising

Gibraltar Weather History for the Previous 24 Hours

Scroll right to see more
 ConditionsComfort  
Time TempWeatherWind HumidityBarometerVisibility
6:20 pm
Wed, Oct 16
70 °FSunny.10 mph35%30.07 "Hg10 mi
5:50 pm72 °FSunny.7 mph36%30.07 "Hg10 mi
5:20 pm72 °FSunny.5 mph38%30.07 "Hg10 mi
4:50 pm73 °FSunny.6 mph44%30.07 "Hg10 mi
4:20 pm72 °FSunny.7 mph53%30.09 "Hg10 mi
3:50 pm70 °FSunny.7 mph60%30.09 "Hg10 mi
3:20 pm70 °FSunny.6 mph57%30.09 "Hg10 mi
2:50 pm66 °FSunny.7 mph64%30.12 "Hg10 mi
2:21 pm70 °FSunny.7 mph46%30.12 "Hg10 mi
1:50 pm70 °FSunny.7 mph38%30.15 "Hg10 mi
1:20 pm68 °FSunny.6 mph46%30.15 "Hg10 mi
12:50 pm68 °FSunny.5 mph46%30.15 "Hg10 mi
12:22 pm66 °FSunny.2 mph52%30.15 "Hg10 mi
11:50 am64 °FSunny.2 mph56%30.15 "Hg10 mi
11:23 am63 °FSunny.2 mph52%30.15 "Hg10 mi
10:50 am61 °FSunny.5 mph55%30.15 "Hg10 mi
10:23 am59 °FSunny.7 mph59%30.15 "Hg10 mi
9:50 am57 °FSunny.6 mph63%30.15 "Hg10 mi
9:21 am57 °FSunny.6 mph63%30.15 "Hg10 mi
8:50 am57 °FSunny.7 mph63%30.12 "Hg10 mi
7:50 am57 °FClear.7 mph59%30.12 "Hg10 mi
6:50 am59 °FClear.6 mph51%30.12 "Hg10 mi
5:50 am59 °FClear.8 mph59%30.12 "HgN/A
4:50 am61 °FClear.7 mph55%30.12 "HgN/A
3:50 am61 °FClear.6 mph52%30.12 "HgN/A
2:50 am61 °FClear.8 mph59%30.15 "HgN/A
1:50 am63 °FClear.9 mph52%30.15 "HgN/A
12:50 am63 °FClear.8 mph56%30.15 "HgN/A
11:50 pm
Tue, Oct 15
64 °FClear.8 mph49%30.15 "HgN/A
10:50 pm66 °FClear.9 mph40%30.15 "HgN/A
9:50 pm68 °FClear.10 mph35%30.12 "HgN/A
8:50 pm70 °FClear.12 mph35%30.12 "HgN/A
7:50 pm70 °FClear.10 mph46%30.09 "Hg10 mi
Weather by CustomWeather, © 2019

See weather overview